#timestamp,LO_Frequency,Hit,StdDev 
1547632815.3,286047000.5,N
1547632835.2,286047001.0,N
1547632855.0,286047000.2,N
1547632855.9,286047000.2,N
1547632875.7,286047002.8,N
1547632895.6,286047002.5,N
1547632915.4,286046999.8,N
1547632935.3,286047002.4,N
1547632955.1,286047004.1,Y
1547632956.0,286047004.1,P
1547632975.8,286047003.2,N
1547632995.7,286047002.9,N
1547633015.5,286047003.6,N
1547633035.3,286047006.0,Y
1547633055.2,286047002.4,P
1547633075.0,286046998.6,P
1547633075.9,286046998.6,N
1547633095.8,286047001.2,N
1547633115.6,286046998.6,N
1547633135.4,286047000.4,N
1547633155.3,286047000.0,N
1547633175.1,286046998.7,N
1547633195.9,286046998.8,N
1547633215.7,286046996.7,N
1547633235.5,286046997.2,N
1547633255.4,286046997.3,N
1547633275.2,286046997.3,N
1547633295.0,286046995.4,N
1547633295.9,286046995.4,N
1547633315.8,286046995.6,N
1547633335.6,286046994.1,N
1547633355.5,286046993.3,N
1547633375.3,286046995.1,N
1547633395.1,286046995.0,N
1547633415.9,286046996.6,N
1547633435.7,286046998.8,N
1547633455.5,286046999.1,N
1547633475.4,286046998.3,N
1547633495.2,286046998.6,N
1547633515.1,286047000.9,N
1547633516.0,286047000.9,N
1547633535.8,286046997.9,N
1547633555.6,286046995.7,N
1547633575.5,286046996.7,N
1547633595.3,286046995.8,N
1547633615.2,286046995.2,N
1547633635.9,286046996.7,N
1547633655.7,286046997.6,N
1547633675.6,286046995.3,N
1547633695.4,286046997.6,N
1547633715.2,286046995.5,N
1547633735.1,286046997.0,N
1547633736.0,286046997.0,N
1547633755.8,286046999.4,N
1547633775.7,286046998.9,N
1547633795.5,286046996.9,N
1547633815.3,286046996.7,N
1547633835.2,286046998.9,N
1547633855.0,286046999.3,N
1547633855.9,286046999.3,N
1547633875.8,286046998.2,N
1547633895.6,286046999.0,N
1547633915.4,286046999.3,N
1547633935.3,286046998.0,N
1547633955.1,286046998.5,N
1547633975.8,286047001.2,N
1547633995.7,286047000.2,N
1547634015.5,286046999.0,N
1547634035.4,286046999.0,N
1547634055.2,286046998.9,N
1547634075.0,286046998.9,N
1547634075.9,286046998.9,N
1547634095.8,286046998.6,N
1547634115.6,286046999.3,N
1547634135.5,286046997.4,N
1547634155.3,286046998.3,N
1547634175.1,286047000.4,N
1547634195.9,286047000.8,N
1547634215.7,286046998.8,N
1547634235.5,286046997.2,N
1547634255.4,286046997.1,N
1547634275.2,286046996.8,N
1547634295.1,286046997.2,N
1547634296.0,286046997.2,N
1547634315.8,286046997.5,N
1547634335.6,286046997.5,N
1547634355.5,286046997.9,N
1547634375.3,286046997.4,N
1547634395.2,286046994.9,Y
1547634415.9,286046997.9,P
1547634435.7,286046994.9,P
1547634455.6,286046993.7,P
1547634475.4,286046995.1,N
1547634495.3,286046996.2,N
1547634515.1,286046997.5,N
1547634516.0,286046997.5,N
1547634535.8,286046997.1,N
1547634555.7,286046999.0,N
1547634575.5,286046998.6,N
1547634595.3,286047001.0,N
1547634615.2,286046997.0,N
1547634635.0,286046995.4,N
1547634635.9,286046995.4,N
1547634655.8,286046997.3,N
1547634675.6,286046997.7,N
1547634695.4,286046997.2,N
1547634715.3,286046998.6,N
1547634735.1,286047002.6,N
1547634755.9,286046998.1,N
1547634775.7,286046998.6,N
1547634795.5,286046998.2,N
1547634815.4,286046996.7,N
1547634835.2,286046995.4,N
1547634855.0,286046994.9,N
1547634855.9,286046994.9,N
1547634875.8,286046997.5,N
1547634895.6,286046997.6,N
1547634915.5,286046999.2,N
1547634935.3,286046997.2,N
1547634955.1,286046998.1,N
1547634975.9,286046996.9,N
1547634995.7,286046996.8,N
1547635015.6,286046999.4,N
1547635035.4,286046998.9,N
1547635055.2,286046998.7,N
1547635075.1,286046998.3,N
1547635076.0,286046998.3,N
1547635095.8,286047000.0,N
1547635115.6,286047000.3,N
1547635135.5,286047002.5,N
1547635155.3,286047004.1,N
1547635175.2,286047003.3,N
1547635195.9,286047005.4,N
1547635215.7,286047005.6,N
1547635235.6,286047004.9,N
1547635255.4,286047009.7,Y
1547635275.2,286047010.1,P
1547635295.1,286047011.9,N
1547635296.0,286047011.9,N
1547635315.8,286047010.9,N
1547635335.7,286047012.8,N
1547635355.5,286047014.5,Y
1547635375.3,286047005.4,P
1547635395.2,286047004.9,N
1547635415.0,286047008.8,P
1547635415.9,286047008.8,Y
1547635435.7,286047002.1,P
1547635455.6,286046999.9,N
1547635475.4,286047000.8,N
1547635495.3,286047002.8,N
1547635515.1,286047002.3,N
1547635516.0,286047002.3,N
1547635535.8,286046999.9,N
1547635555.7,286047001.3,N
1547635575.5,286047002.4,N
1547635595.3,286047003.5,N
1547635615.2,286046999.9,N
1547635635.0,286047000.8,N
1547635635.9,286047000.8,N
1547635655.8,286047000.6,N
1547635675.6,286046998.4,N
1547635695.4,286047001.1,N
1547635715.3,286047001.2,N
1547635735.1,286047000.4,N
1547635755.8,286046999.8,N
1547635775.7,286047001.2,N
1547635795.5,286046999.4,N
1547635815.3,286046994.9,N
1547635835.2,286046995.8,N
1547635855.0,286046994.5,N
1547635855.9,286046994.5,N
1547635875.8,286046996.3,N
1547635895.6,286046992.9,N
1547635915.4,286046996.1,N
1547635935.3,286046995.2,N
1547635955.1,286046995.7,N
1547635975.8,286046992.5,N
1547635995.7,286046990.1,Y
1547636015.5,286046989.6,P
1547636035.4,286046987.8,N
1547636055.2,286046985.7,N
1547636075.0,286046988.1,N
1547636075.9,286046988.1,N
1547636095.8,286046987.0,Y
1547636115.6,286046996.9,P
1547636135.5,286046996.6,N
1547636155.3,286046996.9,N
1547636175.1,286046997.8,N
1547636195.9,286046999.4,N
1547636215.7,286046998.5,N
1547636235.5,286046999.4,N
1547636255.4,286046999.4,N
1547636275.2,286047001.2,N
1547636295.1,286046999.4,N
1547636296.0,286046999.4,N
1547636315.8,286047000.3,N
1547636335.6,286047001.9,N
1547636355.5,286047002.8,N
1547636375.3,286046998.1,N
1547636395.1,286047000.2,N
